Location: Bonac
(42.8765°N, 0.9753°E)
Time: 09:18:05
(UTC+00:00)

SJ 16-02 - Pass Details

Date: 12 January 2026
Orbit: 582 x 594 km, 75.0° (Epoch: 18 February)

Event Time Altitude Azimuth Distance (km) Brightness Sun altitude
Rises 17:36:58 0° 341° (NNW) 2,822 4.7 -9.7°
Reaches altitude 10° 17:39:11 10° 341° (NNW) 1,919 3.9 -10.1°
Maximum altitude 17:43:28 87° 251° (WSW) 595 1.3 -10.8°
Drops below altitude 10° 17:47:44 10° 164° (SSE) 1,912 3.9 -11.5°
Sets 17:49:57 0° 164° (SSE) 2,810 4.8 -11.9°
